星链-1130 (DARKSAT) (STARLINK-1130 (DARKSAT) )

导读

STARLINK-1130是美国太空探索技术公司星链卫星互联网项目的一颗卫星,于2020年1月7日发射入轨,属于星链早期部署批次。星链系统旨在构建全球卫星互联网星座,该卫星承担着为全球偏远区域、海陆空用户提供低延迟宽带互联网接入服务的任务,是星链星座组网进程中的组成单元。

基本信息
目录编号:
44932
目录名称:
STARLINK-1130
国际标识:
2020-001U
轨道中心:
EARTH
卫星名称:
星链-1130 (DARKSAT)
卫星全名:
星链-1130 (DARKSAT) (STARLINK-1130 (DARKSAT) )
卫星状态:
已陨落 最后检测时间 2025-07-20
发射日期:
2020-01-07 UTC
国别 :
美国 (US)
星等 :
--
轨道信息
数据来源 国际轨道数据
星历时间: 2025-07-20T17:50:32+0800
轨道信息已过期329天
半长轴: 6523.102km
偏心率: 0.0004882
轨道倾角: 53.023°
近地点辐角 264.291°
升交点赤经 196.871°
平近点角 267.166°
近地点: 141.782km
远地点: 148.152km
周期: 87.386分钟
每日圈数: 16.478648
详细信息
固有亮度:
5
最大亮度:
2.5
卫星平台:
Starlink V1.0
覆盖范围:
全球
运营商:
太空探索技术公司
运营商所在国:
美国
制造商(研发单位):
太空探索技术公司
制造商所在国:
美国
使用方式:
暂无
卫星简介
星链(Starlink)计划是由太空探索技术公司(SpaceX)提出的一个巨型低轨卫星互联网星座项目,计划在2019年至2024年间在太空搭建由约1.2万颗卫星组成的“星链”网络,其中1584颗将部署在地球上空550千米处的近地轨道,并从2020年开始工作。该卫星仍在工作。